ECMWFNIL_925_spd_000.txt.gz
Wind_Speed
5 5 3 2 2 2 2 2 2 3 3 5 6 7 7 7 8 8 8 9 10 10 11 11 11 12 12 11 11 11 11 11 11 11 10 8 8 9 11 12 12 12
6 6 5 4 4 5 5 4 3 3 4 5 6 7 7 8 8 8 8 9 10 10 11 12 13 13 13 13 12 12 12 11 11 10 9 8 8 10 12 13 13 12
8 7 6 6 6 5 5 4 4 5 5 6 6 7 7 8 8 9 9 10 10 11 11 12 13 14 13 13 12 13 12 12 12 10 8 9 10 11 13 13 13 13
9 8 7 6 6 5 4 5 6 6 6 6 6 7 7 8 10 10 10 11 11 11 12 13 14 14 13 13 13 12 12 12 12 10 8 9 10 11 12 12 12 12
9 9 8 7 6 6 6 6 6 7 6 6 7 7 8 8 10 11 11 12 12 12 13 13 14 14 13 14 14 13 12 12 11 9 9 9 10 9 10 10 10 11
8 8 8 7 7 7 7 8 8 7 7 8 8 8 8 9 10 11 12 12 13 14 14 14 15 15 15 15 14 13 13 12 11 10 10 10 10 9 9 9 9 10
8 9 8 8 8 8 8 8 8 8 8 9 11 10 10 10 11 11 13 13 14 15 16 16 16 17 17 17 16 15 14 13 13 12 11 12 10 8 7 7 7 9
9 9 9 9 8 8 9 9 9 10 11 11 12 12 11 11 12 12 12 13 15 16 17 17 18 19 18 18 18 17 14 14 14 13 12 12 11 9 7 6 7 9
10 9 9 9 9 9 9 8 9 12 14 13 13 11 11 12 12 13 13 14 16 17 18 18 18 17 17 18 17 15 13 14 15 14 13 13 12 10 8 7 7 7
10 10 10 9 10 10 10 9 11 12 11 10 10 9 10 12 14 15 15 15 16 17 18 18 18 17 18 18 17 16 15 15 15 15 14 14 15 13 9 8 7 7
12 11 11 10 10 10 10 10 10 10 8 8 10 11 12 13 14 15 15 17 18 18 18 18 19 20 20 18 19 21 20 18 17 16 16 16 17 15 12 10 8 8
13 12 12 12 12 11 10 9 8 10 11 11 11 11 11 11 13 15 16 17 18 18 19 18 18 20 21 20 21 20 19 19 19 18 17 18 19 18 15 13 11 11
15 14 13 12 12 12 11 10 9 10 11 11 11 10 10 12 14 16 16 15 16 18 18 17 18 21 22 20 17 15 15 17 18 19 20 21 22 21 17 16 16 15
17 15 15 14 13 11 11 10 10 11 11 12 13 11 11 13 14 14 14 15 17 18 17 18 21 20 17 14 12 12 14 16 17 18 21 24 24 21 18 18 19 19
16 15 15 15 14 13 12 11 11 12 12 13 13 12 12 14 14 13 14 16 17 17 18 19 17 11 9 11 12 12 13 16 17 16 20 23 22 20 20 22 23 22
15 15 15 15 14 13 12 12 12 12 13 14 14 13 12 13 13 13 13 14 15 16 17 14 10 8 10 11 10 11 11 12 14 15 17 19 21 21 23 24 23 23
17 17 17 16 15 13 12 12 13 13 13 14 14 13 12 13 14 14 13 12 13 15 15 11 10 12 11 9 9 10 10 9 11 14 16 18 20 22 23 25 26 26
19 19 19 17 15 14 13 13 14 14 14 15 15 13 12 12 14 14 13 12 13 15 14 12 14 15 12 10 10 10 9 10 13 16 17 18 19 21 24 27 28 24
20 20 20 18 16 14 14 14 15 15 14 15 14 13 12 13 15 14 13 13 14 15 14 15 16 15 12 11 11 10 10 12 15 18 19 20 21 22 24 26 24 20
22 21 19 17 16 15 14 14 15 15 15 15 14 13 14 15 16 14 13 14 14 15 16 16 15 13 12 12 12 11 12 13 15 18 20 21 22 23 24 24 24 22
22 21 18 17 16 15 14 15 15 14 14 15 14 15 16 16 15 13 14 15 15 14 15 14 12 11 12 13 13 13 14 15 16 17 19 20 21 21 22 24 26 26
21 20 19 18 16 16 16 15 14 14 14 15 15 16 18 19 17 15 16 17 15 14 13 11 9 11 13 14 13 14 17 17 17 18 19 20 19 19 21 23 25 24
21 20 20 19 18 17 16 16 16 18 17 15 15 17 21 22 18 17 17 15 13 13 12 11 10 13 15 15 14 15 16 15 15 17 18 18 18 18 19 21 23 22
22 21 20 20 20 18 16 16 17 18 17 17 17 20 22 20 17 17 17 12 10 13 13 13 14 14 15 15 16 17 16 14 14 14 15 16 17 16 17 21 22 20
21 22 21 20 19 17 16 17 16 15 17 20 21 21 20 19 18 18 16 12 11 12 14 14 13 11 12 15 18 18 16 13 13 13 14 16 16 15 17 20 20 17
20 21 21 20 19 16 15 15 15 15 16 17 17 17 18 19 20 17 14 13 13 12 12 13 12 11 13 17 19 18 14 10 10 11 13 15 15 15 17 17 15 13

ECMWFNIL_925_spd_003.txt.gz
Wind_Speed
13 11 10 10 9 9 9 7 7 7 7 6 6 5 5 4 4 4 4 5 6 7 8 8 9 9 10 10 11 11 10 10 10 10 9 8 5 5 7 8 7 6
14 13 12 10 10 11 9 8 9 8 8 7 6 6 6 5 4 4 4 6 7 8 9 9 10 11 11 12 12 12 11 11 11 10 9 8 6 6 8 8 7 7
16 15 14 11 11 12 10 10 10 9 8 7 7 6 6 5 4 5 6 7 8 8 8 10 11 12 13 13 12 12 12 12 12 11 10 10 9 9 8 7 9 9
17 16 15 11 11 12 12 12 11 9 8 7 7 6 6 6 6 7 7 8 9 9 9 10 11 12 13 14 13 12 13 14 13 11 11 11 10 9 8 8 10 9
18 16 15 12 12 13 13 12 10 10 10 9 8 7 7 6 6 7 8 9 10 11 11 11 11 12 13 14 14 14 14 15 14 13 13 11 9 9 9 9 9 8
19 18 16 15 14 14 13 13 11 10 10 10 9 9 8 8 8 9 10 11 11 12 12 12 12 13 14 15 15 16 16 16 14 14 14 12 11 10 10 11 9 7
20 20 18 17 15 15 14 14 12 11 12 12 12 11 10 10 10 11 11 11 11 12 12 12 13 15 16 16 17 17 16 15 14 14 14 13 13 12 12 12 10 8
21 20 19 17 17 16 16 15 13 13 14 14 13 11 10 11 11 12 12 11 11 12 12 12 14 15 16 17 17 17 17 16 14 13 13 14 14 14 14 13 11 11
21 21 20 18 18 17 17 16 15 16 16 15 13 11 11 11 12 13 13 13 13 14 13 13 14 14 15 16 17 18 18 17 15 13 15 16 16 16 15 13 12 13
21 21 21 20 19 18 18 17 16 17 17 15 12 11 12 13 13 13 13 14 15 15 15 15 16 16 16 16 17 17 15 16 17 17 17 17 16 17 17 16 15 16
21 21 21 21 20 19 19 18 16 16 14 11 10 11 12 14 13 13 13 13 15 15 16 16 16 15 15 14 15 14 14 17 19 17 16 17 16 17 18 18 18 18
23 23 22 21 20 19 19 18 16 15 12 8 8 9 9 10 12 12 13 14 17 17 16 14 13 12 13 14 14 14 14 15 15 14 15 17 17 17 18 18 18 19
26 26 24 22 21 19 18 16 15 15 13 9 8 8 7 8 10 12 15 17 16 14 13 12 13 13 14 14 14 13 12 10 11 12 13 15 15 16 17 17 19 21
29 27 25 23 21 20 19 17 16 16 14 12 11 12 11 12 13 14 16 16 13 12 13 14 15 16 14 12 12 10 8 8 10 11 11 12 14 15 15 16 19 21
31 29 25 23 20 19 18 18 17 17 15 13 14 14 14 16 16 15 15 15 14 14 14 14 15 15 13 11 10 8 7 8 9 9 10 11 13 14 16 17 19 20
32 30 26 24 22 20 19 18 18 18 16 15 15 15 16 18 18 17 15 16 16 15 13 13 14 13 11 11 11 10 9 9 10 11 11 11 12 14 16 18 19 20
32 30 27 26 23 22 21 21 20 19 17 16 16 17 18 19 20 18 17 16 16 15 14 13 14 14 13 13 12 10 10 10 12 13 14 14 14 15 17 19 20 21
32 30 29 27 24 22 22 21 20 18 17 17 17 18 19 20 21 20 17 16 16 15 15 14 15 16 15 13 11 10 10 10 12 14 15 17 18 17 17 18 19 21
32 31 29 26 23 23 23 22 20 19 18 19 19 19 20 21 21 20 17 17 16 17 17 16 16 16 15 12 11 10 9 9 12 15 17 19 20 20 19 18 19 20
32 31 28 25 24 24 24 23 22 21 20 20 21 21 21 21 21 19 18 19 19 18 17 16 16 15 13 12 11 11 10 11 14 17 19 20 20 20 20 18 18 19
31 30 28 27 26 26 26 26 25 24 22 22 21 20 20 21 20 19 19 20 19 19 17 17 16 14 12 12 12 12 11 12 15 18 20 20 20 19 19 18 18 18
32 32 29 28 27 28 29 29 28 26 23 22 22 20 20 20 20 19 19 18 18 18 17 16 16 12 11 13 13 11 10 12 16 19 20 21 20 19 17 17 18 18
33 33 31 29 29 30 31 31 30 28 24 23 23 22 21 22 21 20 19 18 16 12 7 8 10 8 11 14 12 9 10 14 18 20 20 20 20 19 18 18 19 19
34 33 32 31 31 32 32 31 30 28 25 25 24 23 24 25 23 19 16 14 10 4 1 3 4 4 7 9 8 7 11 14 17 19 19 18 18 18 18 19 20 20
35 34 33 33 34 34 33 31 29 28 26 26 26 25 26 25 21 15 11 8 6 5 5 4 3 3 5 5 5 9 11 12 13 15 16 16 16 18 19 20 20 19
35 34 34 34 34 34 32 30 27 23 20 21 21 21 21 19 15 10 7 6 6 7 6 5 5 6 8 8 11 13 11 10 11 11 13 15 16 18 20 21 20 17

ECMWFNIL_925_spd_006.txt.gz
Wind_Speed
17 18 17 14 13 12 12 12 12 12 11 10 9 9 8 7 6 6 6 6 6 5 5 5 5 5 5 5 5 6 6 6 7 7 7 7 6 5 4 3 4 5
19 19 17 14 13 13 13 12 12 12 11 10 9 9 9 9 8 7 7 7 7 6 6 6 5 5 6 5 6 7 7 8 9 8 8 8 8 7 6 5 6 6
21 19 17 15 15 14 14 13 12 11 10 10 10 9 9 9 8 7 8 8 8 7 7 7 6 7 7 7 8 8 9 10 10 10 10 9 9 9 8 8 8 8
22 21 18 16 16 15 15 13 12 12 11 10 10 9 9 8 8 9 9 9 9 9 8 8 8 8 7 8 9 10 10 10 11 11 11 10 10 10 10 10 10 10
24 21 19 17 16 15 15 14 14 14 12 9 9 9 10 10 10 10 10 10 10 10 10 9 9 8 8 8 9 11 12 12 12 12 12 12 12 12 11 11 12 12
25 22 21 19 16 15 16 16 15 14 12 11 11 11 11 12 12 12 12 11 12 11 10 10 9 9 9 9 11 12 12 13 13 12 12 13 13 13 13 13 14 15
27 25 22 20 18 16 17 17 16 14 12 12 13 13 13 13 14 14 14 13 12 11 10 10 10 10 10 11 11 11 12 13 14 14 13 14 15 15 15 15 16 17
29 26 23 21 19 18 18 18 16 14 13 14 15 16 16 16 16 15 15 13 12 10 10 10 11 12 12 12 13 14 14 15 15 15 15 15 15 15 15 16 17 19
30 27 25 23 21 20 20 18 16 14 14 15 17 18 18 17 17 15 14 13 12 12 11 12 13 13 14 14 16 17 17 16 16 16 16 17 17 17 16 16 17 18
31 28 27 25 24 22 21 19 16 14 14 16 18 19 19 19 18 16 15 14 13 12 12 13 14 15 15 16 17 16 15 14 15 16 17 17 17 16 16 16 17 18
32 30 29 28 26 24 22 19 17 15 16 18 19 20 20 19 18 18 16 15 13 12 13 14 15 15 15 15 14 12 12 13 14 15 16 15 14 14 14 15 17 18
33 32 30 29 27 25 23 20 18 18 19 20 20 20 19 19 18 17 17 17 15 13 14 15 15 13 12 12 12 12 14 15 14 13 13 13 12 12 13 14 15 16
35 33 32 30 28 26 24 21 20 20 21 22 21 19 17 17 16 16 15 15 13 12 14 15 13 12 11 12 13 14 14 14 13 12 12 12 12 12 12 12 13 13
35 34 33 30 28 27 25 22 21 22 23 23 21 18 16 15 15 13 12 11 11 12 13 12 11 12 13 13 14 14 14 14 14 14 13 12 12 12 12 12 13 13
36 35 32 29 29 28 25 23 22 22 23 23 21 18 17 17 15 14 14 14 13 13 13 13 13 14 14 13 12 12 13 14 14 14 14 14 14 14 15 15 15 15
36 34 32 31 31 29 26 24 23 23 23 23 22 21 20 19 17 17 16 16 16 15 14 15 16 16 15 13 12 13 14 15 15 15 15 15 16 17 18 18 17 17
34 33 34 34 33 29 26 25 24 24 25 25 24 23 21 20 18 18 17 17 18 17 16 16 18 18 16 14 13 14 15 15 15 15 14 15 16 17 19 20 19 19
34 35 37 37 34 30 27 26 26 27 27 26 26 25 23 21 19 19 19 19 20 20 19 18 19 19 18 16 16 16 16 16 15 13 12 12 14 16 18 19 18 18
36 36 37 37 35 30 27 28 29 29 28 27 26 25 24 21 21 21 22 22 23 22 22 21 20 20 20 19 18 18 16 15 14 13 12 12 13 15 16 16 16 16
36 36 37 37 35 31 30 30 31 31 29 28 27 26 25 23 23 24 25 25 24 23 23 23 22 21 21 21 20 17 15 14 14 13 12 13 14 14 15 14 14 14
35 36 38 38 35 33 33 34 34 33 31 29 28 27 26 25 25 26 26 26 24 24 25 25 24 23 22 21 18 15 13 14 15 13 13 15 15 14 13 12 12 13
38 38 38 38 37 35 35 35 36 36 33 31 29 29 28 27 26 26 26 26 24 23 23 22 22 22 20 18 15 13 14 15 14 14 15 16 15 13 11 11 11 12
39 39 39 39 37 36 37 37 38 37 35 32 31 31 30 28 27 27 26 23 19 17 18 18 18 17 16 15 14 14 15 15 14 14 15 15 14 12 10 10 12 13
40 41 41 39 37 37 39 39 39 38 36 33 32 32 32 29 27 23 18 15 12 12 14 14 14 14 15 16 16 16 16 15 13 13 13 13 13 12 11 12 14 15
42 42 41 39 38 39 40 40 40 38 36 33 31 32 29 24 19 14 10 9 10 10 11 11 12 14 16 17 17 17 16 14 12 12 11 12 13 13 14 15 15 14
42 42 41 39 39 40 40 40 38 35 32 29 27 26 21 14 9 6 7 8 9 10 12 12 13 13 14 14 15 15 15 13 12 11 10 11 13 14 16 17 15 11

ECMWFNIL_925_spd_009.txt.gz
Wind_Speed
26 24 23 23 22 19 18 16 16 15 14 15 15 13 12 11 11 11 9 7 6 6 5 4 4 3 3 2 2 3 4 5 5 5 6 6 6 6 7 7 8 7
27 25 24 23 22 20 19 19 17 17 16 16 15 13 13 13 13 11 9 8 8 7 6 5 4 4 4 4 4 5 6 6 7 7 7 8 8 9 9 10 10 10
29 27 26 24 23 22 21 19 18 18 17 17 16 14 14 14 13 12 11 10 10 9 8 6 6 6 6 6 7 7 7 7 7 7 8 9 10 11 12 12 13 13
31 29 27 25 24 23 22 20 19 18 18 17 16 14 14 14 13 12 12 11 11 10 9 8 7 8 8 8 8 8 8 8 9 9 9 10 11 13 13 13 14 15
33 31 29 26 25 24 21 21 20 19 18 16 15 14 14 14 13 13 13 12 11 10 9 9 9 10 9 9 9 10 10 10 10 10 11 12 12 13 14 15 16 16
34 32 30 28 26 24 22 22 21 19 18 16 14 14 14 14 14 14 13 12 11 11 10 10 11 11 11 11 11 11 11 11 11 11 13 14 14 14 15 16 18 18
36 34 31 28 26 24 22 22 21 19 18 16 15 15 15 16 15 15 14 12 11 11 10 10 11 11 11 12 12 12 12 12 13 14 15 16 16 16 16 17 19 20
37 35 32 29 26 24 22 21 21 21 19 18 17 16 16 16 16 15 13 12 11 11 10 10 11 11 12 12 13 14 14 14 14 15 16 16 16 17 17 17 18 19
38 36 32 27 23 21 20 20 22 22 21 20 19 17 17 17 16 15 13 12 11 11 11 12 13 13 13 13 14 15 16 15 13 13 14 15 16 17 17 17 17 18
35 30 26 23 20 19 20 21 23 24 23 21 19 17 17 17 16 16 15 14 13 13 13 14 14 15 14 15 16 16 15 14 12 11 12 13 15 15 15 14 14 15
27 24 22 18 19 22 23 25 26 25 24 22 19 18 18 17 17 18 17 16 16 15 14 15 15 15 15 15 15 15 14 13 12 11 12 12 13 14 13 12 12 14
26 27 24 20 23 27 28 29 29 26 24 22 20 19 18 18 18 18 18 18 17 16 16 15 15 15 15 15 14 14 13 12 12 12 12 12 13 13 13 13 13 14
32 31 29 28 30 31 30 31 29 26 24 22 20 20 18 18 18 18 18 17 15 15 15 16 16 16 15 14 13 13 12 12 12 12 13 13 14 14 14 14 14 14
35 30 30 32 33 31 31 31 30 27 24 22 21 21 19 19 18 17 17 15 14 13 14 15 16 15 15 15 14 13 13 13 13 13 13 14 15 16 16 14 14 15
34 30 27 28 30 31 30 31 31 29 25 23 23 22 21 20 18 18 17 15 14 14 14 15 16 16 16 16 15 14 14 14 14 14 15 16 16 17 17 17 16 17
35 30 23 24 31 33 31 32 33 30 27 26 26 24 23 21 20 20 18 16 15 15 16 18 18 18 17 17 17 16 15 15 15 16 16 16 17 18 18 18 16 17
35 27 23 29 34 34 33 33 33 31 29 29 28 26 25 23 23 22 20 18 18 18 19 21 21 20 18 17 18 17 17 16 16 18 18 17 18 17 16 15 14 15
31 24 25 34 35 35 35 33 32 32 32 32 31 28 26 25 25 24 22 21 21 21 22 23 22 21 19 18 19 19 19 18 19 20 20 18 17 16 14 12 13 14
27 24 31 37 36 36 36 33 33 33 34 34 33 30 28 27 28 27 24 23 23 24 24 23 22 21 20 21 21 21 21 22 22 22 21 20 17 15 13 12 13 14
31 32 36 37 35 34 34 33 34 35 35 36 34 31 30 30 30 29 26 25 25 25 24 24 23 22 22 22 23 24 24 24 24 22 21 20 18 15 14 13 13 13
36 35 38 37 34 34 34 33 34 35 36 36 35 34 33 32 31 29 27 26 26 26 26 25 24 23 23 24 25 25 25 25 24 22 21 20 19 17 16 15 13 13
37 40 42 39 35 33 32 31 33 36 38 38 37 36 34 32 30 28 26 26 27 28 28 27 26 25 23 23 24 24 24 23 22 21 20 20 20 19 17 15 13 12
42 42 39 35 33 30 30 32 35 37 39 40 38 36 35 33 31 28 27 27 28 28 27 26 25 23 21 21 21 20 19 20 20 20 19 20 20 20 18 15 13 12
45 39 34 33 32 30 31 34 36 39 41 39 37 36 35 33 32 30 28 28 28 25 22 21 21 19 16 16 17 16 17 18 19 19 19 20 21 20 18 15 12 12
38 33 33 35 32 30 32 35 37 39 39 37 36 36 34 32 31 29 28 26 23 19 16 15 16 15 13 13 14 15 16 17 18 18 19 21 20 19 17 15 13 12
31 33 38 37 32 32 35 36 37 36 34 32 33 33 31 29 26 24 23 19 15 13 11 10 12 13 12 12 14 14 15 16 18 19 19 20 18 17 16 15 14 13

ECMWFNIL_925_spd_015.txt.gz
Wind_Speed
34 33 31 29 28 26 25 25 25 25 25 25 25 24 23 21 18 18 19 19 19 17 14 12 12 12 11 11 10 9 9 9 8 8 9 8 7 7 7 8 8 9
35 33 31 29 28 26 25 25 25 26 26 25 24 22 21 19 18 18 19 19 20 18 15 13 12 11 11 11 10 10 10 9 9 9 10 9 9 8 9 9 10 11
36 34 32 30 29 27 26 26 26 26 26 25 24 22 20 19 18 18 18 19 19 18 16 14 13 12 11 11 11 10 10 10 10 10 9 9 9 9 9 9 10 11
37 34 32 30 29 28 27 27 27 27 27 25 23 22 20 20 19 19 18 18 19 19 17 15 14 14 13 12 11 11 11 11 11 11 10 10 10 10 10 10 10 10
37 35 33 31 31 30 29 28 28 28 27 25 23 22 21 21 21 20 19 19 19 19 17 16 15 15 14 13 13 13 12 12 12 12 12 11 11 11 10 11 11 11
37 35 34 33 32 31 29 29 28 28 28 26 24 24 23 22 22 21 20 20 20 20 18 17 16 16 16 15 15 14 14 13 13 14 14 12 11 11 12 13 14 14
38 36 35 34 32 31 30 30 30 29 28 26 25 24 23 23 23 21 20 20 21 20 19 18 17 17 16 16 16 15 15 14 15 15 14 13 12 12 13 14 15 14
36 35 35 34 33 32 32 32 30 29 27 26 24 24 22 22 21 20 19 20 20 20 19 18 18 17 17 17 17 16 16 16 16 16 15 14 14 14 14 14 14 13
31 33 33 34 34 34 33 32 30 28 27 25 24 22 21 20 19 19 19 19 20 20 19 18 18 17 18 18 17 16 16 16 16 17 17 16 15 15 14 14 13 13
29 34 34 35 35 35 34 33 30 28 27 26 23 22 20 18 17 18 18 19 20 20 19 19 18 18 18 18 18 17 16 17 17 18 18 17 16 16 14 13 13 13
34 37 38 37 36 36 37 35 32 30 28 26 23 21 18 15 15 17 18 20 21 21 20 19 18 18 19 20 19 18 18 18 19 18 18 18 17 16 15 14 13 13
41 42 41 39 39 40 40 38 34 31 29 27 25 22 19 17 16 16 19 22 22 21 20 20 19 20 21 21 20 19 19 19 19 19 18 18 18 17 15 14 14 14
44 46 44 42 42 42 42 40 36 32 30 29 27 24 21 19 15 15 22 25 24 23 22 21 21 22 22 22 22 21 21 21 20 20 20 19 19 17 16 15 15 16
47 50 47 45 43 42 41 40 37 34 32 29 28 25 22 18 14 18 24 28 28 26 24 23 23 24 25 24 24 23 23 23 22 22 22 21 19 18 17 16 17 18
48 49 47 45 43 38 35 35 35 33 31 30 29 25 20 15 15 21 26 30 32 29 26 25 26 27 27 26 26 25 24 24 24 24 23 21 20 19 18 18 19 20
47 47 44 39 33 28 27 30 30 30 31 31 28 23 18 15 18 25 29 32 35 33 29 28 29 29 28 27 25 24 24 24 25 24 23 22 21 20 19 19 20 22
43 44 42 34 27 28 32 35 32 30 31 29 26 24 20 18 23 29 33 35 36 35 32 31 31 31 28 26 25 24 23 24 24 23 23 22 22 21 21 21 22 23
41 41 40 33 30 32 38 38 34 32 32 30 29 28 24 25 29 33 35 37 36 35 35 34 32 31 28 26 25 24 23 24 24 24 23 23 23 23 23 24 25 24
40 40 38 34 31 33 36 36 33 33 37 37 34 28 25 29 33 35 37 37 34 35 36 35 34 31 28 27 26 25 24 24 25 25 25 25 25 25 26 26 26 24
39 39 35 32 32 33 37 37 35 36 39 38 33 27 25 29 32 36 39 37 34 36 37 35 34 31 29 27 27 27 26 25 26 27 27 27 27 28 28 26 26 26
39 36 30 30 33 35 38 40 38 38 39 38 34 30 29 31 32 34 36 35 35 35 35 36 35 32 30 29 28 28 27 27 28 28 28 29 28 29 28 26 27 28
38 32 26 28 34 35 37 40 39 39 39 39 37 33 30 30 29 28 30 33 34 34 33 35 35 33 31 29 29 29 28 28 28 28 29 27 25 25 26 25 25 24
33 30 25 27 30 33 38 40 38 37 36 35 34 31 28 28 27 25 25 28 30 32 32 34 35 33 30 29 29 28 26 25 26 24 22 19 19 23 25 24 22 19
30 29 26 26 29 35 40 37 32 32 33 32 31 28 24 25 24 21 20 22 25 26 25 25 26 26 26 26 25 23 21 20 20 17 13 12 16 22 24 22 18 14
29 28 28 28 32 39 41 34 29 29 28 26 25 22 19 20 19 16 16 17 17 16 16 17 16 18 23 24 22 20 18 16 16 15 11 12 18 21 21 18 14 11
28 29 29 30 36 41 39 33 27 22 19 17 18 18 17 18 16 14 14 13 11 11 14 15 14 15 19 20 19 19 18 17 16 15 13 15 18 18 15 12 10 10

ECMWFNIL_925_spd_021.txt.gz
Wind_Speed
22 21 20 20 20 18 17 17 16 15 14 14 14 13 13 13 12 12 13 12 12 11 11 10 10 9 8 7 7 6 6 6 6 6 5 5 5 5 4 4 4 4
23 22 21 20 20 19 18 18 17 16 15 14 14 13 13 13 12 12 13 12 12 12 12 12 11 10 9 8 8 8 7 6 7 7 6 6 6 6 6 6 6 6
25 24 23 22 21 20 19 18 17 16 16 15 14 13 13 13 12 13 13 13 12 12 12 13 12 11 10 9 8 8 8 8 8 8 7 7 7 7 7 7 7 7
26 25 24 23 22 21 20 19 18 17 16 15 15 14 13 14 14 14 14 14 13 12 13 13 12 12 11 10 9 9 9 9 9 8 7 8 8 8 8 8 8 7
26 25 25 24 22 21 20 19 19 18 18 16 16 15 15 16 16 16 16 16 15 13 14 14 14 13 12 11 11 10 10 10 10 9 9 8 8 8 8 8 8 8
26 25 25 24 23 22 21 21 20 20 19 18 17 17 18 19 19 19 19 18 18 17 17 17 16 15 14 14 14 13 12 11 10 10 10 10 9 9 9 8 8 9
26 26 26 24 23 23 23 22 21 20 19 18 18 19 19 20 21 20 20 20 20 19 20 20 20 20 18 18 18 16 15 13 11 10 10 10 9 9 9 9 9 9
26 26 25 24 24 24 24 23 21 20 19 19 21 22 22 23 23 22 22 21 21 20 21 22 24 23 20 19 18 17 16 15 12 11 10 10 10 10 10 10 10 11
27 26 26 25 25 25 25 23 21 21 22 24 24 24 24 25 25 25 24 24 23 22 23 22 22 22 20 19 19 18 17 16 13 12 11 11 11 11 11 11 11 12
27 27 26 27 26 26 25 24 23 24 26 26 25 24 25 27 27 27 27 26 24 23 23 22 22 21 20 20 20 19 18 17 15 13 12 12 12 12 12 12 12 12
29 28 28 28 27 26 27 28 28 27 27 27 26 25 26 28 28 29 29 28 26 25 24 24 24 23 22 22 21 20 19 18 17 15 14 14 13 13 13 13 13 12
30 29 29 30 29 27 29 30 29 27 27 28 28 28 27 28 28 29 29 29 28 27 25 26 25 24 23 23 22 21 20 19 17 16 15 14 15 15 15 14 13 13
31 31 31 31 30 29 30 30 29 28 27 27 29 29 29 28 28 29 29 29 30 28 27 27 26 25 24 24 23 22 21 19 18 17 16 15 15 15 15 14 13 13
31 32 31 31 31 31 32 31 30 30 29 28 28 29 29 29 29 30 30 29 30 29 28 28 27 25 23 24 25 23 21 20 19 17 16 15 15 15 15 14 13 14
28 27 27 27 30 33 33 31 31 32 31 30 30 30 30 29 30 31 30 30 29 28 28 28 27 26 25 27 27 24 22 21 19 18 16 15 15 15 15 14 14 14
25 24 24 25 28 31 31 30 31 31 32 33 32 31 29 29 29 29 29 30 29 28 29 27 26 27 29 30 28 24 22 21 19 18 17 15 15 14 14 14 13 13
23 23 23 25 27 28 28 27 27 27 29 31 31 29 27 26 27 27 27 28 28 28 29 27 26 28 30 31 30 26 23 21 20 19 17 16 15 14 13 13 13 13
22 23 23 24 25 26 27 25 24 23 24 24 24 24 23 23 24 25 26 26 26 27 28 27 26 27 29 31 31 29 26 21 19 18 17 15 14 13 13 13 12 12
23 23 23 23 24 24 25 24 22 23 23 21 21 22 21 21 22 23 24 25 25 26 26 25 23 24 27 30 30 31 30 25 19 16 16 15 13 13 12 10 10 10
23 23 22 22 21 20 22 22 21 22 23 21 21 21 19 19 21 21 23 24 23 23 23 22 20 21 25 28 29 31 33 30 24 18 15 15 13 12 11 9 8 9
22 23 21 21 20 18 19 21 21 21 21 20 19 19 18 19 20 21 21 22 21 21 21 20 19 20 22 25 27 30 31 31 25 19 16 15 13 12 11 10 8 8
21 22 21 21 20 19 19 20 20 20 19 18 17 16 16 18 20 20 20 21 22 22 20 19 19 19 20 22 23 26 28 28 23 18 16 15 13 12 11 10 9 9
21 21 22 22 21 20 19 19 19 19 18 19 18 17 16 17 20 21 21 21 22 22 20 19 17 17 19 20 21 23 25 24 20 16 15 14 12 11 10 11 12 12
21 21 21 21 21 20 17 17 18 18 17 18 19 18 17 17 18 20 20 20 21 21 20 19 18 17 17 18 21 23 24 21 18 16 15 14 12 11 11 13 14 14
20 19 19 20 20 19 17 16 17 17 17 18 18 18 17 17 17 18 18 18 19 20 20 19 19 17 16 17 20 21 22 20 17 16 15 14 12 11 12 12 12 13
18 18 18 18 18 18 17 16 16 16 17 17 17 16 16 16 17 17 16 17 17 18 18 18 17 17 17 18 20 21 22 20 17 16 15 13 12 12 11 12 13 13

ECMWFNIL_925_spd_024.txt.gz
Wind_Speed
27 26 26 24 23 22 21 21 21 21 20 20 21 19 19 19 17 18 18 16 16 15 12 13 14 13 13 12 11 10 9 11 11 11 11 9 8 8 7 6 5 4
28 27 26 25 24 24 23 22 23 22 21 21 21 19 19 19 18 19 20 19 19 17 15 15 16 16 15 14 15 14 12 12 12 11 11 10 9 8 8 8 8 7
29 28 27 26 25 25 24 23 23 24 23 22 21 21 21 21 20 20 21 21 21 19 17 17 17 18 17 17 18 17 15 15 14 12 11 11 10 9 9 10 10 9
31 29 29 27 27 27 25 24 24 24 24 24 23 23 22 22 22 22 21 22 21 20 19 19 19 20 20 19 19 18 17 16 16 15 12 11 12 11 10 9 7 7
32 30 30 29 27 27 27 26 26 26 25 25 25 24 24 23 24 24 24 23 23 21 21 21 21 21 21 20 19 19 18 17 17 16 13 12 12 11 11 10 8 7
32 31 31 30 29 28 28 28 28 28 27 26 26 26 25 26 26 26 26 26 25 23 23 23 23 22 22 22 20 20 19 18 18 18 16 14 14 13 12 12 11 11
32 32 32 31 30 29 29 30 30 29 28 28 28 28 27 28 28 28 28 28 26 25 25 26 25 24 23 23 22 21 20 19 19 19 19 18 17 15 15 14 12 12
32 32 33 32 31 30 30 31 31 30 30 29 29 30 30 29 30 30 30 30 29 28 27 28 28 27 25 25 24 23 21 20 20 21 22 22 21 20 18 16 14 13
33 32 33 32 31 31 31 31 31 31 32 32 31 31 31 31 32 32 32 32 31 30 30 30 30 29 27 26 26 25 24 23 23 22 22 24 24 22 20 18 16 15
34 33 33 33 32 32 32 32 31 31 33 34 32 29 31 33 33 33 33 34 33 33 33 32 32 31 29 28 28 27 27 25 25 24 23 22 22 21 20 19 18 17
35 33 33 34 33 32 33 33 31 31 32 34 32 30 31 33 34 33 34 35 35 35 35 34 33 33 31 29 28 29 29 27 25 24 23 23 22 21 20 20 19 18
36 35 35 35 35 33 33 33 33 31 31 33 33 32 31 32 35 35 35 36 37 36 36 36 34 33 33 30 28 28 29 28 26 25 23 23 23 22 21 20 20 19
37 38 37 36 36 35 34 34 34 32 31 32 33 32 31 31 33 36 37 37 37 36 36 36 35 34 34 32 29 28 29 28 27 26 24 23 22 22 21 20 19 19
38 39 39 38 37 35 34 33 34 33 32 33 33 32 31 30 31 34 36 37 37 37 36 36 35 34 34 33 31 29 29 29 28 27 26 24 23 22 21 21 20 19
38 38 39 39 36 35 35 35 34 34 33 33 33 32 31 30 30 32 34 35 36 36 34 35 35 34 34 35 34 31 30 29 28 27 26 25 24 22 22 21 20 20
37 36 36 36 35 36 37 36 35 34 33 33 34 33 31 29 29 31 32 33 34 34 34 34 34 34 35 36 36 34 31 29 29 28 26 25 24 23 23 22 21 20
36 35 34 34 34 35 37 36 35 33 32 31 31 32 32 30 29 30 31 30 31 33 34 33 32 33 35 37 36 35 31 29 28 27 27 26 25 24 23 22 22 21
36 34 32 32 33 33 34 34 33 31 29 28 27 28 30 30 28 30 30 28 27 30 32 33 31 32 35 38 37 34 31 29 27 26 26 26 25 24 23 22 21 20
34 32 30 30 30 30 30 29 29 28 26 24 23 23 26 28 27 28 29 28 26 27 29 30 30 32 36 37 36 34 32 29 27 25 25 25 24 24 23 22 21 20
32 30 28 27 27 26 26 26 25 25 24 22 21 22 24 25 25 25 27 27 27 28 29 28 28 31 35 36 37 36 34 31 28 25 23 24 25 25 25 23 22 22
29 28 26 25 24 24 24 24 23 23 23 21 21 23 24 24 23 24 25 28 28 27 28 27 25 28 32 35 36 36 34 33 31 27 23 22 22 24 25 23 23 25
28 27 25 25 24 23 23 23 22 22 23 22 21 21 21 21 21 22 24 26 26 25 26 26 24 24 28 31 34 36 34 33 34 32 27 23 20 20 22 21 21 23
27 26 26 25 24 23 21 21 22 21 22 23 21 19 19 18 18 19 19 21 23 24 25 24 22 23 26 29 33 34 32 31 34 33 30 27 24 21 21 21 21 22
27 26 26 25 24 23 21 20 21 21 20 20 20 19 18 18 18 18 18 18 18 20 22 23 22 24 27 28 28 28 27 28 31 31 29 29 28 25 25 25 24 23
27 27 27 25 24 23 22 20 20 19 19 19 19 18 18 17 18 18 17 16 16 17 19 21 22 23 26 26 24 24 24 26 29 29 27 28 28 27 27 24 20 19
26 26 26 25 24 24 22 20 19 18 18 18 17 16 15 14 14 15 15 15 15 16 18 21 20 20 24 25 24 25 25 26 28 27 26 27 25 23 22 19 14 14

ECMWFNIL_925_spd_027.txt.gz
Wind_Speed
35 34 33 33 33 32 33 34 34 32 32 31 30 29 30 30 29 28 28 26 24 23 22 22 21 19 18 17 14 16 20 19 17 16 15 14 14 15 13 11 11 11
36 35 34 34 34 32 33 36 36 34 34 32 31 30 30 31 30 29 29 27 25 24 23 24 22 19 20 19 15 17 20 19 17 17 16 15 15 16 15 13 13 13
37 36 35 35 35 34 34 35 35 34 34 33 32 32 31 31 30 30 30 28 27 26 24 25 23 20 22 22 19 19 20 20 19 18 18 18 17 17 16 15 15 14
38 37 37 36 36 37 35 35 35 34 34 33 33 33 32 31 29 30 32 30 28 28 26 25 24 22 23 24 23 22 21 21 21 19 19 20 20 19 18 16 16 16
39 38 38 37 37 37 36 35 36 35 34 34 34 33 33 33 31 31 33 32 31 31 29 27 26 25 25 26 25 24 24 24 23 21 20 21 22 21 20 18 16 15
39 38 38 38 38 38 37 36 37 37 36 35 34 34 34 34 33 33 34 34 33 32 32 29 27 26 27 28 26 25 26 26 26 25 23 23 23 22 22 20 18 16
39 38 38 38 39 38 37 36 36 38 37 36 35 36 35 35 35 35 35 35 35 34 33 31 30 29 29 29 28 27 27 27 27 28 27 25 23 23 23 22 21 19
39 38 38 39 39 38 38 37 37 37 38 37 36 36 36 36 36 36 35 35 36 36 35 34 32 31 30 31 31 29 29 29 28 29 30 28 25 24 24 22 22 21
38 39 39 39 39 38 38 38 38 37 38 38 38 37 37 37 38 38 37 37 37 37 37 35 34 33 32 32 33 32 31 32 31 30 30 30 28 27 26 24 23 22
39 39 39 40 40 38 38 39 39 38 38 38 39 38 38 38 38 38 39 39 39 38 38 37 35 35 34 34 35 35 34 34 33 32 32 32 32 30 29 27 26 24
40 40 40 41 41 39 38 39 39 38 38 39 39 39 39 39 38 39 40 41 41 40 39 38 38 37 36 36 36 36 36 36 35 34 33 33 33 32 31 30 29 27
40 40 42 42 42 40 39 39 39 38 39 39 40 39 39 39 40 40 41 42 42 41 41 40 39 39 39 38 38 37 38 37 36 35 35 34 33 33 32 32 30 29
42 42 43 43 43 42 40 40 39 39 39 40 40 39 38 39 40 41 41 42 42 41 42 41 41 40 40 39 38 38 38 38 37 36 36 35 33 31 30 31 30 28
44 44 44 43 43 42 40 39 40 39 39 40 39 39 38 39 40 41 40 40 41 42 42 41 40 40 40 40 38 38 38 38 37 36 35 34 32 29 28 29 28 28
45 43 42 41 41 41 40 40 40 40 39 39 39 39 39 37 38 39 39 39 40 40 39 39 39 39 40 40 39 38 38 37 37 36 33 31 29 28 28 29 29 28
44 42 40 40 41 41 41 40 40 39 38 38 39 40 39 37 36 37 38 39 38 38 38 38 38 39 39 40 41 40 38 36 34 32 31 30 29 28 28 29 30 29
42 40 39 40 41 41 41 41 40 39 38 37 38 39 39 37 36 36 38 39 38 38 38 38 38 38 39 40 41 40 38 35 33 31 31 32 31 30 29 29 29 29
41 39 39 40 41 40 40 40 39 38 37 36 36 38 39 37 37 37 38 38 38 37 37 37 37 38 38 39 40 41 39 34 32 32 33 32 32 31 30 28 28 28
40 39 39 40 40 40 39 39 38 36 36 36 36 37 38 37 36 37 37 36 36 36 36 37 37 38 38 38 39 41 41 36 33 33 33 32 31 31 29 29 28 28
41 40 40 40 39 39 38 37 37 36 35 34 33 35 36 37 35 34 35 35 35 36 37 38 38 38 38 38 38 40 41 40 35 32 31 30 30 30 29 28 28 29
41 40 39 39 38 38 37 36 36 35 32 31 32 34 36 36 35 33 33 34 35 36 38 38 37 37 37 37 37 39 41 40 35 31 30 29 28 29 28 27 27 28
42 40 38 38 37 37 36 35 34 33 32 31 31 32 33 35 34 33 33 34 35 36 36 34 34 35 35 35 36 37 40 39 35 32 30 28 26 25 26 27 28 28
41 39 38 37 37 36 35 34 34 34 33 32 31 30 30 32 33 32 32 33 34 34 33 31 31 33 34 34 34 35 38 38 36 33 31 28 26 24 22 23 25 26
41 40 38 37 36 36 36 34 34 33 33 33 33 31 29 29 30 30 31 32 33 32 31 30 30 30 30 31 32 33 36 37 36 33 31 29 27 24 22 19 18 19
40 40 39 38 37 36 35 34 33 33 34 34 33 32 29 28 29 29 29 29 29 28 26 26 25 24 24 26 28 29 34 36 34 32 30 28 26 25 25 21 16 14
39 40 40 39 37 36 34 34 33 33 32 31 29 28 28 27 27 26 23 22 21 21 21 21 20 20 20 22 24 27 31 33 33 31 29 27 26 26 25 22 16 12

ECMWFNIL_925_spd_030.txt.gz
Wind_Speed
40 39 39 38 37 36 35 36 36 35 35 34 34 35 36 34 32 32 31 30 29 30 29 28 26 25 25 23 23 24 24 21 18 19 19 19 19 19 20 19 16 14
40 39 39 38 37 36 36 36 37 36 36 35 36 36 37 36 34 34 33 31 31 30 30 30 28 27 27 25 25 25 25 23 20 20 21 20 20 21 21 19 17 15
40 39 39 38 38 37 36 36 36 37 37 36 36 37 37 37 36 36 34 33 32 31 30 30 29 29 28 27 26 26 25 24 24 23 22 22 21 21 22 20 18 17
41 40 40 39 39 38 37 37 36 37 37 37 37 38 38 37 36 36 36 34 33 32 31 31 31 31 31 29 28 27 26 25 26 25 24 24 23 22 23 22 19 18
42 42 41 40 39 37 37 37 38 38 38 38 39 39 38 38 37 37 37 36 35 33 33 33 32 32 33 32 30 28 27 27 27 27 26 26 24 23 23 23 21 20
43 42 41 39 38 37 37 38 39 39 39 39 39 39 39 38 38 38 38 38 37 35 34 35 35 34 34 34 31 30 29 28 29 29 28 28 27 24 24 25 24 22
43 42 41 39 38 37 38 38 39 40 40 40 40 40 40 39 38 39 39 39 39 37 36 37 37 36 36 35 33 32 31 30 30 31 30 30 29 27 27 26 26 25
43 42 41 39 38 38 38 38 39 40 41 40 40 41 40 39 39 40 40 40 40 39 39 39 38 38 38 36 35 35 34 33 32 33 32 32 31 31 30 29 29 28
43 42 41 39 39 39 39 40 40 40 41 41 41 41 40 40 40 40 41 42 41 41 40 41 40 39 39 38 37 36 36 36 35 35 35 35 34 33 32 31 30 30
43 42 40 40 40 40 40 41 40 40 40 41 41 41 40 41 40 40 41 42 42 42 42 42 42 41 40 39 38 37 37 38 37 37 37 37 36 35 33 32 31 31
43 42 41 41 41 41 41 41 41 40 41 41 41 41 41 41 41 41 42 43 44 44 44 43 43 42 41 40 40 39 38 39 38 38 38 38 37 35 32 31 31 31
42 42 42 43 43 42 42 42 41 40 41 41 41 41 40 41 42 43 43 44 45 44 44 45 44 43 43 42 41 40 39 39 39 38 37 36 35 33 31 31 31 31
43 43 43 44 44 43 42 41 41 41 41 42 42 41 40 41 42 43 44 44 44 44 44 45 44 43 43 43 42 41 40 39 38 37 35 34 33 32 32 32 32 32
44 44 43 44 44 43 42 41 41 41 41 41 41 41 41 42 42 43 43 42 43 44 44 43 43 43 43 42 41 40 40 38 37 35 34 32 32 32 32 32 33 33
43 42 42 42 42 42 42 42 42 42 41 40 40 41 42 42 41 41 40 40 42 42 42 41 42 43 43 43 41 40 39 38 37 35 34 33 32 32 32 32 32 33
42 41 41 41 41 42 43 43 42 42 41 41 40 41 41 40 39 39 39 41 41 41 40 40 41 42 43 43 43 41 39 38 36 35 34 33 32 31 31 32 32 32
41 41 40 41 42 42 43 43 43 42 41 41 40 40 40 39 38 39 40 42 41 40 40 40 41 43 43 43 43 41 39 38 36 35 34 33 32 32 32 32 31 31
41 41 40 41 41 42 43 43 42 41 40 40 39 39 38 38 39 40 42 42 40 39 40 41 42 44 43 43 42 41 40 38 36 35 34 33 33 33 33 32 30 31
42 41 41 41 42 43 42 41 41 41 40 39 39 38 38 38 39 40 41 41 40 40 41 42 43 43 43 42 41 41 40 39 38 36 34 32 32 33 32 31 30 30
41 41 41 41 42 42 41 40 41 40 39 39 38 38 38 38 39 40 40 39 40 41 41 42 43 44 43 41 40 39 39 40 39 37 34 32 31 32 32 31 30 30
41 41 42 41 41 40 40 40 40 39 39 38 37 37 39 39 40 40 39 39 41 41 40 42 44 43 40 39 39 38 39 40 39 36 33 31 31 31 32 31 30 30
42 42 41 41 41 40 40 40 39 39 39 38 36 37 38 38 38 39 39 40 40 39 41 42 40 37 36 36 37 37 38 38 39 36 33 31 30 31 32 31 29 28
44 43 41 41 40 40 40 40 40 39 38 37 36 36 36 37 38 39 40 40 39 39 41 39 33 31 32 33 34 36 36 37 38 35 32 31 30 31 31 28 26 25
45 44 42 41 41 41 41 40 38 38 37 37 37 36 36 38 38 38 37 38 38 39 38 34 29 28 29 30 32 34 35 36 37 34 31 30 29 28 26 23 23 23
45 44 43 41 41 41 40 39 39 38 37 37 38 38 37 37 36 34 34 34 35 35 33 30 28 27 26 27 29 30 32 34 35 32 29 28 26 24 21 19 19 20
43 43 42 42 42 41 40 39 38 37 36 37 37 36 35 33 33 32 31 31 31 30 29 29 28 25 23 24 26 27 29 33 33 31 29 28 27 24 22 20 19 19

ECMWFNIL_925_spd_033.txt.gz
Wind_Speed
44 42 40 39 38 37 36 35 36 36 36 36 36 37 37 35 33 32 30 30 30 30 29 28 28 27 26 25 26 26 26 25 25 24 23 23 22 22 23 22 21 20
44 42 40 39 38 37 36 36 37 37 37 37 38 38 37 35 34 33 32 31 31 31 30 30 29 29 28 27 27 27 27 26 26 25 25 24 23 23 24 24 22 21
44 42 41 40 39 38 37 36 36 37 37 38 38 38 37 36 35 34 34 32 32 32 31 31 31 31 30 29 28 28 28 28 27 27 26 24 23 23 24 24 23 22
44 43 42 42 41 39 37 36 36 37 37 37 38 38 37 36 35 35 35 34 34 33 33 33 33 33 33 31 30 30 30 29 28 28 27 26 24 24 24 23 24 23
45 44 43 42 41 39 38 37 37 37 37 37 38 38 38 37 36 36 36 36 36 35 34 34 35 35 35 34 33 32 32 32 31 30 29 28 26 25 24 24 24 24
44 44 43 43 41 40 38 38 39 38 38 38 38 38 38 38 37 37 38 38 38 37 36 36 36 36 36 36 35 35 35 34 33 32 32 30 28 27 26 25 25 25
42 42 42 42 41 40 39 40 40 39 39 38 38 38 38 39 38 38 38 39 39 39 38 38 37 37 37 37 37 36 36 35 34 33 33 32 31 29 28 27 26 26
42 41 41 41 41 40 40 40 40 40 40 38 38 38 39 39 39 39 39 39 40 40 40 39 38 38 38 38 38 38 37 36 35 35 34 33 32 32 31 29 28 27
41 41 41 41 41 41 41 41 41 41 40 39 39 39 39 40 40 40 40 40 40 41 40 40 39 39 38 39 39 39 38 37 37 36 36 35 34 34 32 30 29 29
41 41 41 41 42 42 42 42 42 41 40 40 40 39 39 40 40 39 39 40 41 41 41 41 40 40 39 40 40 40 39 39 38 37 36 36 35 34 33 32 31 31
41 41 41 42 43 43 42 43 42 41 40 40 40 39 39 39 39 39 39 40 42 42 41 41 40 40 40 40 40 40 40 40 38 38 37 35 35 34 33 33 33 33
40 41 42 43 43 43 42 41 41 41 40 40 40 40 39 38 38 39 40 41 43 42 41 41 40 41 41 40 40 40 40 40 38 37 36 35 34 34 34 34 33 33
42 43 43 43 43 42 41 40 40 40 40 40 40 39 39 38 39 39 40 41 42 41 40 40 40 40 40 40 40 40 40 39 38 37 36 35 35 34 34 34 33 32
43 43 42 42 42 41 40 40 39 40 40 40 39 39 39 39 39 39 39 39 40 40 40 39 39 39 40 40 40 40 39 38 37 36 35 35 35 34 34 34 33 33
42 41 40 40 40 40 40 40 40 40 39 38 38 39 39 39 38 38 38 37 38 38 38 38 39 40 41 42 41 40 38 37 36 35 34 34 34 34 34 34 34 34
40 40 39 39 39 40 40 40 39 39 38 38 38 39 38 37 37 37 37 38 38 37 37 38 39 41 42 43 42 40 38 37 35 35 34 33 33 32 33 33 34 34
40 40 39 39 40 40 40 40 39 38 37 37 37 37 37 36 36 36 37 38 38 37 37 39 41 42 42 42 42 40 38 37 35 34 34 33 33 32 33 33 33 33
40 40 40 40 40 40 40 39 38 37 37 37 36 37 36 36 36 37 38 39 38 38 38 40 42 42 41 41 40 40 39 37 36 35 34 34 33 33 33 32 31 31
39 39 39 40 41 41 39 38 37 38 38 37 37 36 36 36 37 38 38 38 38 38 39 41 41 40 39 39 38 38 39 38 37 36 35 34 34 34 34 32 30 30
38 39 40 40 40 40 38 38 38 39 39 38 36 35 35 37 38 39 39 39 38 38 39 39 39 38 37 37 36 36 37 38 39 37 35 35 34 34 34 33 32 31
38 39 39 39 38 38 38 38 39 39 38 37 35 35 38 39 39 39 40 39 39 39 38 37 37 36 35 35 36 36 36 38 39 37 35 34 34 34 34 34 32 31
39 39 38 38 37 37 38 39 39 39 38 37 36 37 38 38 38 39 39 39 38 38 37 36 35 33 33 34 34 34 35 37 38 38 35 34 33 33 34 33 31 29
40 40 38 37 36 37 38 39 39 38 38 38 38 38 37 38 38 38 38 38 38 38 37 36 33 31 32 32 32 33 35 36 38 38 35 33 33 33 32 31 29 28
42 41 39 38 37 38 39 39 38 39 39 40 40 39 38 39 38 37 37 38 38 38 38 35 32 32 32 32 32 33 34 36 37 36 34 32 32 31 29 28 27 26
42 42 40 39 39 40 40 39 39 39 39 39 39 39 38 37 36 35 35 36 36 36 37 34 33 33 33 32 31 32 33 35 36 34 32 31 30 28 26 26 26 24
40 41 41 41 41 41 41 41 40 38 37 37 37 37 36 35 36 36 35 34 35 35 35 34 34 35 33 31 31 31 31 33 34 33 32 30 29 27 26 24 23 22

ECMWFNIL_925_spd_036.txt.gz
Wind_Speed
42 41 40 40 39 37 36 36 35 35 35 35 35 36 36 35 34 33 32 31 30 29 27 25 24 23 23 23 23 24 24 22 23 23 22 21 20 19 18 17 17 18
42 41 40 39 38 38 37 38 38 37 37 36 36 36 35 34 34 33 33 32 31 30 28 26 25 24 24 24 24 25 24 24 24 24 23 22 21 21 20 19 18 19
43 42 41 39 39 39 39 39 38 38 38 37 36 35 35 34 33 33 32 32 31 30 29 27 26 25 25 25 26 26 25 25 25 25 25 24 23 22 22 20 20 20
43 43 42 41 41 41 39 38 38 38 38 37 36 36 35 34 33 32 32 32 31 31 30 29 27 26 26 26 27 27 26 26 26 26 26 25 24 24 23 22 21 21
44 44 43 42 42 41 39 38 38 39 38 38 37 36 35 34 33 33 32 32 32 31 31 30 28 28 28 28 28 28 28 27 27 27 27 27 26 25 24 23 22 21
42 43 43 42 42 41 39 39 40 40 39 38 37 36 35 35 34 33 33 33 32 32 32 32 30 29 29 29 30 30 30 29 29 28 28 28 27 26 25 24 23 22
41 41 42 41 41 41 40 40 40 40 39 38 37 36 36 35 35 34 34 34 33 33 33 33 32 31 31 31 31 32 32 32 31 30 29 29 28 27 27 26 25 23
40 40 41 41 41 41 40 40 39 39 38 37 36 36 36 36 36 35 35 34 34 34 34 34 34 33 33 33 33 33 33 33 33 32 32 31 30 30 29 28 27 26
40 40 41 41 41 41 41 41 39 38 37 36 36 36 36 36 37 36 36 35 35 35 35 35 35 35 35 35 35 34 34 34 34 34 34 33 32 32 30 29 28 27
40 40 40 41 42 42 41 41 39 37 36 36 35 35 35 36 36 36 36 36 36 36 36 35 36 36 37 37 36 35 35 35 35 35 35 34 34 33 31 30 30 29
40 39 40 41 42 41 41 39 38 36 35 35 35 35 35 35 35 36 36 37 37 37 37 37 37 37 38 38 37 36 35 35 35 35 35 35 34 33 32 31 31 30
40 41 41 41 41 41 39 38 37 37 36 35 35 35 35 35 35 36 37 38 39 38 38 38 38 38 38 38 38 37 36 36 35 35 34 34 34 33 33 32 32 31
42 43 43 42 41 41 40 39 38 38 38 36 36 35 36 36 36 37 38 39 40 40 40 39 38 38 38 38 38 37 36 36 35 34 33 33 34 34 33 33 32 32
44 44 43 42 41 41 41 40 40 40 39 37 36 36 37 38 38 38 38 39 40 41 41 39 38 38 39 38 38 38 37 35 34 33 33 33 34 34 33 33 33 32
44 42 41 41 40 40 40 40 40 39 38 37 37 38 38 38 38 38 38 39 40 40 40 39 39 39 40 40 39 38 37 35 34 33 33 34 34 33 33 33 33 33
41 39 39 39 39 40 40 40 39 38 37 38 39 39 38 38 38 38 39 41 40 39 38 38 39 41 42 41 41 40 38 36 34 34 34 34 33 33 33 34 34 34
39 38 38 39 40 40 40 39 39 38 38 39 39 39 38 37 38 39 41 41 40 39 39 39 40 42 42 42 41 40 38 37 35 35 35 34 34 33 34 34 34 34
39 38 38 39 40 40 39 39 39 39 39 39 39 39 38 38 40 41 42 41 39 39 39 40 41 43 42 42 41 41 39 38 36 35 35 35 35 35 34 34 34 34
39 38 39 40 40 40 39 38 39 39 40 39 39 39 39 40 41 42 41 40 39 39 40 40 41 42 42 42 41 40 40 39 37 36 36 35 36 36 35 35 34 33
38 39 40 40 39 39 38 38 39 40 40 40 39 39 39 40 41 41 41 41 41 40 39 39 41 42 42 41 41 40 40 39 38 37 36 36 36 36 36 35 35 34
38 39 39 38 38 38 38 39 39 40 40 39 38 39 40 41 41 40 41 41 41 40 38 38 41 42 41 40 40 40 39 39 38 37 36 36 36 37 36 36 35 33
38 38 37 36 36 37 37 38 39 40 40 39 38 39 39 39 39 39 40 40 40 39 38 39 40 40 40 40 40 39 38 38 38 37 36 36 37 37 36 35 34 32
39 38 36 36 36 37 38 39 40 40 39 39 38 37 37 38 38 38 39 39 39 39 39 39 39 39 40 40 39 39 38 38 38 38 37 37 38 37 35 34 33 32
40 39 38 37 38 39 40 40 40 40 40 40 39 37 38 39 38 37 38 38 39 40 41 40 38 39 40 40 39 39 38 38 39 38 37 37 36 34 33 33 32 32
38 38 38 38 39 40 40 40 39 39 38 38 38 38 38 37 36 36 36 37 38 40 41 40 38 38 39 40 39 39 39 39 39 37 35 35 33 31 30 31 32 30
37 38 40 40 40 40 39 38 37 36 35 36 37 36 35 34 35 36 35 36 37 38 38 39 39 38 38 39 39 39 39 39 38 36 35 34 31 30 29 29 29 28

ECMWFNIL_925_spd_042.txt.gz
Wind_Speed
27 26 24 23 24 23 23 22 21 21 21 20 20 20 20 20 19 19 19 19 19 19 18 17 16 15 15 15 14 13 13 13 13 12 13 14 13 12 13 12 12 10
29 27 24 23 24 24 24 23 22 21 21 22 21 19 18 19 19 20 20 19 19 19 19 18 16 15 16 16 15 15 14 14 14 13 14 15 14 13 14 13 13 12
30 28 27 25 24 25 24 22 21 22 21 21 22 21 19 19 19 20 21 20 20 19 19 19 18 16 17 17 16 16 16 15 15 14 15 16 15 14 14 14 13 13
30 29 29 27 24 24 24 22 22 22 22 22 22 22 20 19 19 20 21 21 20 19 19 19 19 18 18 17 17 17 17 16 16 16 16 16 16 15 15 15 14 14
32 31 30 28 26 24 23 24 24 23 23 23 22 22 22 21 20 20 21 21 22 21 20 20 20 19 19 19 18 18 18 16 16 17 18 17 16 16 15 15 15 15
32 32 31 29 28 25 24 25 25 24 24 23 23 22 22 22 22 22 22 22 22 22 21 21 21 20 20 20 19 19 19 17 16 18 19 18 16 16 16 16 17 16
33 33 32 31 29 27 26 25 25 25 24 23 23 23 23 23 24 24 24 23 22 22 22 22 21 21 21 20 20 21 20 18 17 19 20 19 17 17 17 16 17 18
34 33 33 32 30 28 28 27 26 26 26 24 24 24 24 24 24 24 25 25 24 23 23 22 22 22 22 21 22 22 21 19 19 20 21 20 18 18 18 17 17 18
33 33 32 33 32 30 30 29 28 27 27 27 26 25 25 25 25 25 25 26 25 24 24 23 23 23 22 22 23 23 23 21 20 21 22 21 20 19 19 19 18 19
33 33 33 33 33 32 31 31 29 28 28 29 28 27 26 26 26 26 26 26 26 25 25 24 24 23 23 23 24 25 25 23 22 22 22 22 21 21 20 20 20 19
34 34 33 34 34 33 32 32 31 29 29 29 30 29 28 26 26 27 27 27 27 26 26 25 25 25 24 24 24 25 26 25 24 23 23 23 23 22 21 21 21 21
35 35 35 35 35 33 32 32 32 31 30 29 30 30 30 28 27 28 28 28 28 27 26 26 26 26 25 25 25 24 25 26 24 24 24 24 23 23 23 22 22 22
36 36 36 35 35 34 32 32 33 33 32 31 30 30 31 30 29 29 29 29 29 28 27 27 27 26 26 26 26 25 25 26 25 24 24 24 24 24 24 23 23 23
36 36 35 35 34 34 33 33 33 33 33 32 30 30 31 31 30 30 29 28 28 28 28 28 27 26 26 27 28 27 25 26 26 25 24 23 24 24 24 24 24 23
34 33 33 33 33 33 34 34 33 33 32 32 31 30 30 30 30 30 28 28 28 28 29 28 27 27 28 29 29 27 26 26 26 26 26 24 23 24 24 24 24 24
32 32 32 33 33 34 35 35 33 32 31 32 32 30 29 29 30 30 28 28 28 28 28 28 28 28 31 33 33 29 27 26 25 26 26 25 24 23 23 24 24 24
31 31 32 33 34 34 34 34 33 31 30 31 31 30 29 29 29 30 29 28 28 28 28 28 28 30 34 37 38 35 30 26 25 26 26 26 25 24 23 23 24 24
31 30 31 32 33 33 33 32 32 31 30 30 30 30 30 29 29 30 31 29 28 28 28 28 28 32 36 38 40 41 38 31 25 24 25 25 26 25 24 23 23 24
29 29 30 31 32 32 31 30 31 32 31 31 30 30 29 29 30 30 30 30 29 28 29 29 28 31 37 40 40 42 42 38 29 24 24 25 25 25 24 24 23 23
29 29 30 30 30 30 30 30 32 33 32 30 29 29 28 29 29 30 30 30 30 29 29 29 29 31 35 40 41 41 43 42 35 26 23 23 24 24 24 24 24 23
31 31 29 28 28 28 29 29 30 31 31 29 28 27 28 28 28 29 30 30 30 29 29 30 30 32 35 38 41 41 41 42 39 31 25 24 24 24 24 24 25 25
32 31 29 28 27 27 28 29 29 30 29 29 28 27 27 27 28 30 30 30 30 30 30 31 31 33 37 38 40 40 40 42 41 35 30 28 25 24 25 25 26 27
31 30 28 27 27 28 29 30 30 30 29 29 29 28 28 28 28 29 30 30 31 31 32 32 31 33 38 41 41 40 40 42 42 35 31 30 28 25 25 26 29 30
28 27 26 26 28 29 30 30 30 29 28 28 29 29 29 29 28 28 28 29 31 32 33 33 31 33 38 42 43 43 42 43 41 34 31 31 29 27 28 29 30 32
26 27 27 28 29 30 30 29 28 27 26 27 28 28 29 28 27 27 28 29 30 32 33 33 32 32 37 41 44 44 44 43 38 32 30 30 29 29 31 32 31 31
26 28 29 29 29 28 28 27 26 26 26 27 28 27 27 27 27 28 28 29 29 30 31 32 32 32 34 39 42 44 46 44 37 31 31 32 31 31 31 32 32 31

ECMWFNIL_925_spd_045.txt.gz
Wind_Speed
26 25 25 25 24 23 23 23 22 22 21 21 20 20 20 20 20 19 20 20 20 19 19 18 18 17 16 15 13 12 12 12 12 11 12 13 13 13 14 15 14 13
28 26 25 24 24 24 24 24 23 22 22 22 21 20 19 20 21 21 20 20 20 20 19 19 19 18 18 16 15 14 13 13 13 12 13 14 14 14 14 15 16 14
29 28 27 26 25 25 25 24 24 23 22 22 22 21 20 20 20 21 22 21 21 21 20 20 20 20 19 18 17 17 15 15 15 14 14 15 15 15 15 15 16 16
31 30 29 27 26 25 24 24 24 25 24 23 23 23 21 20 20 21 23 23 22 21 21 21 21 21 20 19 19 18 17 17 17 15 15 16 16 16 15 15 16 16
33 32 30 29 27 26 25 25 26 26 25 24 23 22 23 22 21 21 22 23 23 22 22 22 22 21 21 20 20 19 18 18 18 18 17 17 17 17 16 16 16 16
34 33 31 30 28 27 26 26 27 27 26 26 24 23 23 24 23 23 23 24 24 24 23 23 23 22 22 22 21 20 19 19 19 19 19 19 18 18 17 17 17 17
34 34 33 32 30 29 28 27 27 27 27 26 25 24 24 24 25 25 24 24 24 24 24 23 23 23 23 22 22 22 21 20 20 21 21 20 20 19 18 18 18 19
35 35 34 33 31 30 30 29 28 28 27 26 25 25 25 25 26 25 25 25 24 24 24 24 24 24 23 23 23 23 23 21 21 22 22 22 21 21 21 19 19 20
35 34 33 34 33 32 31 30 29 28 28 27 26 26 26 26 26 26 26 26 25 24 24 24 24 24 24 23 24 24 24 23 22 23 24 24 23 22 22 21 20 21
34 34 34 34 35 33 33 33 31 29 29 29 29 27 27 27 27 26 26 26 26 25 24 24 24 25 24 24 24 24 25 24 23 24 24 25 24 24 23 23 22 22
36 35 35 36 36 35 35 35 33 31 30 31 31 30 28 27 27 27 26 26 26 26 25 25 25 25 25 25 24 24 25 25 24 25 25 25 25 25 24 24 24 24
36 36 36 37 37 36 36 35 34 33 32 31 31 31 30 29 27 27 27 27 27 26 26 26 26 26 26 26 25 24 25 25 24 25 25 25 26 25 25 25 25 25
36 36 36 36 37 36 35 34 34 34 32 31 30 30 31 30 29 28 27 27 27 27 27 27 27 27 27 28 27 26 25 25 25 25 25 25 26 26 26 26 26 26
35 35 34 35 35 35 34 33 33 34 33 31 30 30 30 31 30 29 28 28 29 29 29 28 29 29 29 29 29 28 27 26 26 26 26 25 26 26 27 27 27 27
33 32 32 33 33 33 33 33 33 33 33 32 30 29 29 30 31 31 29 29 29 29 29 30 30 30 30 31 30 30 29 28 27 27 27 26 25 26 27 27 27 27
32 31 31 32 32 32 33 33 33 31 31 32 32 30 29 29 30 31 30 30 29 30 30 30 30 31 33 35 34 32 30 28 27 27 27 27 26 26 26 27 27 27
31 31 31 32 32 32 32 32 33 32 31 32 32 31 30 29 29 30 31 30 29 30 30 30 31 32 35 38 38 36 32 28 27 27 27 27 27 26 26 26 27 28
30 30 30 30 31 31 31 31 32 32 31 31 32 32 30 29 29 30 31 30 29 30 31 31 31 34 37 40 41 41 38 32 27 27 27 27 28 28 27 27 27 28
29 29 30 30 30 30 30 29 30 31 31 31 31 31 30 29 29 29 30 30 30 30 31 31 31 33 38 41 42 43 44 39 31 27 28 29 29 30 29 28 28 28
29 30 30 29 29 28 28 29 30 31 31 30 29 30 30 30 30 29 30 31 32 31 31 31 31 32 37 42 44 44 46 45 39 30 28 30 30 31 31 30 30 29
29 30 29 28 27 28 29 30 30 31 31 30 29 29 30 30 30 30 30 31 32 31 30 30 31 33 36 40 44 45 45 47 44 36 30 30 31 31 31 31 31 31
29 28 27 27 28 28 30 30 30 30 30 30 28 27 28 28 29 30 30 30 31 32 32 32 32 33 36 38 42 44 44 47 47 39 32 31 30 30 31 31 32 32
29 28 27 27 28 29 30 30 29 28 27 28 28 27 27 28 28 29 29 30 31 32 33 34 32 33 36 38 40 43 44 47 48 40 33 32 30 29 30 31 32 34
28 28 28 28 29 30 30 29 28 27 27 28 29 29 29 28 27 27 28 30 32 33 34 33 32 32 36 38 40 42 44 47 48 39 32 31 31 29 30 30 33 36
27 28 28 28 29 29 28 28 27 26 26 27 28 28 28 27 26 26 27 28 29 31 33 33 31 31 34 37 40 42 44 47 46 38 31 31 30 29 31 32 33 36
27 28 28 28 27 27 26 25 25 25 25 26 26 26 25 26 26 26 26 26 27 28 30 32 32 31 33 36 39 42 45 48 44 36 32 32 30 30 31 31 32 35

ECMWFNIL_925_spd_048.txt.gz
Wind_Speed
34 33 32 31 30 28 27 27 26 27 26 24 25 26 26 24 24 24 25 25 25 24 23 21 21 21 19 18 17 16 15 16 16 16 16 16 16 15 14 14 14 13
35 34 33 32 31 30 30 29 28 27 27 27 25 25 26 26 25 25 25 25 25 24 24 22 22 23 21 19 19 19 18 17 17 17 18 18 17 16 16 15 16 16
37 35 34 33 32 32 32 30 29 28 28 28 27 25 25 26 26 26 26 26 26 25 24 24 23 23 23 21 20 21 20 19 19 18 18 19 18 17 17 16 17 18
39 37 37 35 34 34 32 31 30 30 28 28 29 27 25 24 25 27 27 26 26 25 25 25 24 23 23 23 22 22 21 21 21 19 19 20 20 18 18 18 18 19
41 40 38 36 35 33 33 32 31 31 30 28 28 28 27 26 25 27 28 27 27 26 25 26 25 24 24 23 23 23 22 21 22 21 20 21 22 20 19 19 20 20
41 41 39 37 36 34 33 34 34 33 32 30 28 28 29 28 27 26 27 28 27 26 25 26 26 25 25 25 24 24 23 21 22 23 23 22 22 22 20 20 21 22
40 40 40 37 36 34 34 34 35 34 32 31 29 28 29 30 30 28 27 28 28 27 26 26 27 27 26 26 26 25 25 23 22 24 26 24 23 23 22 22 23 24
39 40 40 38 36 35 35 34 34 34 33 30 29 29 29 30 31 31 29 28 28 28 28 28 28 29 28 27 28 27 27 25 24 25 27 27 25 25 25 24 23 25
39 39 39 38 36 35 35 34 33 34 34 32 30 29 30 30 31 32 31 30 29 29 30 29 29 30 30 29 29 29 29 28 26 26 28 29 28 28 27 26 25 25
38 37 37 37 36 34 34 34 32 31 33 34 31 28 29 31 30 31 31 32 31 30 31 31 31 31 32 31 30 31 31 30 28 28 29 30 30 29 29 28 27 27
36 35 34 35 35 33 33 34 32 30 31 32 32 30 29 30 31 31 31 32 33 32 32 32 32 32 33 32 31 32 32 32 31 30 29 30 31 31 30 30 29 29
35 36 35 35 35 34 33 34 33 31 30 30 32 32 30 30 31 32 32 33 34 34 33 33 34 33 34 34 32 32 32 32 31 31 30 30 31 31 31 31 31 30
37 38 37 36 37 36 34 33 33 32 31 30 31 32 31 30 31 33 34 34 34 35 35 34 35 34 34 35 34 32 32 32 31 31 30 30 30 31 31 31 31 31
38 39 39 38 38 38 36 34 33 33 33 32 32 32 32 31 31 32 34 34 34 36 36 35 35 35 35 35 35 33 32 32 31 30 30 30 30 30 31 31 32 32
37 37 39 39 38 38 38 36 35 35 35 34 33 33 32 32 32 31 32 33 34 35 35 35 35 36 37 36 37 36 33 32 32 32 31 30 30 30 31 32 32 32
36 36 37 38 38 38 39 39 37 36 35 35 35 34 33 33 33 32 31 33 34 34 35 36 36 37 39 39 39 39 37 34 33 33 33 32 31 31 32 32 33 32
35 35 35 37 38 38 38 39 38 37 36 37 36 35 35 34 33 33 32 32 33 34 35 36 37 38 40 42 43 43 41 38 35 34 34 34 33 32 33 33 33 33
35 35 35 35 37 38 38 39 39 38 36 36 37 36 35 34 34 35 35 33 33 34 34 35 37 39 41 44 45 46 44 41 37 35 34 35 35 34 34 33 33 33
34 34 35 35 36 37 37 37 38 38 37 36 37 37 36 35 35 35 36 35 34 34 35 35 35 37 41 44 46 47 47 44 39 36 35 35 36 36 35 35 35 35
35 34 35 34 34 35 34 35 36 38 37 36 35 35 36 36 36 36 36 38 37 35 35 36 35 35 39 43 46 47 48 47 43 38 37 37 37 38 37 37 38 37
35 34 33 33 32 33 33 34 35 36 36 34 32 34 37 37 36 36 36 38 38 37 35 35 35 35 37 41 45 47 48 50 47 42 39 38 37 38 39 39 40 39
33 33 32 32 32 32 32 32 33 33 34 34 32 31 33 34 34 35 35 36 37 37 36 35 34 35 37 40 43 46 48 50 50 46 41 39 38 38 39 40 40 40
32 32 32 32 31 31 33 33 32 32 32 33 32 29 29 30 32 33 33 33 34 36 38 38 35 35 38 40 42 45 48 50 51 48 42 40 39 38 39 40 40 41
32 32 31 32 32 32 32 31 31 31 30 31 33 31 29 29 29 30 31 32 33 35 37 38 37 36 37 39 40 43 47 50 51 48 43 41 39 37 38 39 40 42
31 32 32 32 32 31 30 30 30 29 29 30 31 31 30 28 27 28 30 31 32 34 35 37 37 35 36 38 39 40 44 48 48 45 42 41 39 38 37 37 38 39
30 31 31 31 30 30 29 29 29 27 27 28 28 29 29 29 28 27 28 29 30 30 32 35 35 34 34 37 37 37 41 45 45 43 42 41 38 35 35 35 35 35